owner,sensor,date,latitude,longitude,air_pressure(mBar),qcFlag 
LOOP,urn:ioos:station:wmo:lopl1:1,2017-01-01T00:16:00Z,28.8850,-90.0250,1014.1,11111222 
LOOP,urn:ioos:station:wmo:lopl1:1,2017-01-01T01:16:00Z,28.8850,-90.0250,1014.1,11111222 
LOOP,urn:ioos:station:wmo:lopl1:1,2017-01-01T02:16:00Z,28.8850,-90.0250,1014.1,11111222 
LOOP,urn:ioos:station:wmo:lopl1:1,2017-01-01T03:16:00Z,28.8850,-90.0250,1014.1,11111222 
LOOP,urn:ioos:station:wmo:lopl1:1,2017-01-01T04:16:00Z,28.8850,-90.0250,1014.1,11111222 
LOOP,urn:ioos:station:wmo:lopl1:1,2017-01-01T05:16:00Z,28.8850,-90.0250,1014.1,11111222 
LOOP,urn:ioos:station:wmo:lopl1:1,2017-01-01T06:16:00Z,28.8850,-90.0250,1013.1,11111222 
LOOP,urn:ioos:station:wmo:lopl1:1,2017-01-01T07:16:00Z,28.8850,-90.0250,1013.1,11111222 
LOOP,urn:ioos:station:wmo:lopl1:1,2017-01-01T08:16:00Z,28.8850,-90.0250,1013.1,11111222 
LOOP,urn:ioos:station:wmo:lopl1:1,2017-01-01T09:16:00Z,28.8850,-90.0250,1013.1,11111222 
LOOP,urn:ioos:station:wmo:lopl1:1,2017-01-01T10:21:00Z,28.8850,-90.0250,1013.1,11111222 
LOOP,urn:ioos:station:wmo:lopl1:1,2017-01-01T11:21:00Z,28.8850,-90.0250,1013.1,11111222 
LOOP,urn:ioos:station:wmo:lopl1:1,2017-01-01T12:21:00Z,28.8850,-90.0250,1014.1,11111222 
LOOP,urn:ioos:station:wmo:lopl1:1,2017-01-01T13:21:00Z,28.8850,-90.0250,1014.1,11111222 
LOOP,urn:ioos:station:wmo:lopl1:1,2017-01-01T14:21:00Z,28.8850,-90.0250,1014.1,11111222 
LOOP,urn:ioos:station:wmo:lopl1:1,2017-01-01T15:21:00Z,28.8850,-90.0250,1015.1,11111222 
LOOP,urn:ioos:station:wmo:lopl1:1,2017-01-01T16:21:00Z,28.8850,-90.0250,1015.1,11111222 
LOOP,urn:ioos:station:wmo:lopl1:1,2017-01-01T17:21:00Z,28.8850,-90.0250,1015.1,11111222 
LOOP,urn:ioos:station:wmo:lopl1:1,2017-01-01T18:21:00Z,28.8850,-90.0250,1014.1,11111222 
LOOP,urn:ioos:station:wmo:lopl1:1,2017-01-01T19:21:00Z,28.8850,-90.0250,1013.1,11111222 
LOOP,urn:ioos:station:wmo:lopl1:1,2017-01-01T20:21:00Z,28.8850,-90.0250,1013.1,11111222 
LOOP,urn:ioos:station:wmo:lopl1:1,2017-01-01T21:21:00Z,28.8850,-90.0250,1013.1,11111222 
LOOP,urn:ioos:station:wmo:lopl1:1,2017-01-01T22:21:00Z,28.8850,-90.0250,1014.1,11111222 
LOOP,urn:ioos:station:wmo:lopl1:1,2017-01-01T23:26:00Z,28.8850,-90.0250,1014.1,11111222 
LOOP,urn:ioos:station:wmo:lopl1:1,2017-01-02T00:26:00Z,28.8850,-90.0250,1014.1,11111222 
LOOP,urn:ioos:station:wmo:lopl1:1,2017-01-02T01:26:00Z,28.8850,-90.0250,1015.1,11111222 
LOOP,urn:ioos:station:wmo:lopl1:1,2017-01-02T02:26:00Z,28.8850,-90.0250,1016.1,11111222 
LOOP,urn:ioos:station:wmo:lopl1:1,2017-01-02T03:26:00Z,28.8850,-90.0250,1015.1,11111222 
LOOP,urn:ioos:station:wmo:lopl1:1,2017-01-02T04:26:00Z,28.8850,-90.0250,1015.1,11111222 
LOOP,urn:ioos:station:wmo:lopl1:1,2017-01-02T05:26:00Z,28.8850,-90.0250,1015.1,11111222 
LOOP,urn:ioos:station:wmo:lopl1:1,2017-01-02T06:26:00Z,28.8850,-90.0250,1015.1,11111222 
LOOP,urn:ioos:station:wmo:lopl1:1,2017-01-02T07:26:00Z,28.8850,-90.0250,1015.1,11111222 
LOOP,urn:ioos:station:wmo:lopl1:1,2017-01-02T08:26:00Z,28.8850,-90.0250,1014.1,11111222 
LOOP,urn:ioos:station:wmo:lopl1:1,2017-01-02T09:31:00Z,28.8850,-90.0250,1014.1,11111222 
LOOP,urn:ioos:station:wmo:lopl1:1,2017-01-02T10:31:00Z,28.8850,-90.0250,1014.1,11111222 
LOOP,urn:ioos:station:wmo:lopl1:1,2017-01-02T11:31:00Z,28.8850,-90.0250,1014.1,11111222 
LOOP,urn:ioos:station:wmo:lopl1:1,2017-01-02T12:31:00Z,28.8850,-90.0250,1014.1,11111222 
LOOP,urn:ioos:station:wmo:lopl1:1,2017-01-02T13:31:00Z,28.8850,-90.0250,1014.1,11111222 
LOOP,urn:ioos:station:wmo:lopl1:1,2017-01-02T14:31:00Z,28.8850,-90.0250,1013.1,11111222 
LOOP,urn:ioos:station:wmo:lopl1:1,2017-01-02T15:31:00Z,28.8850,-90.0250,1014.1,11111222 
LOOP,urn:ioos:station:wmo:lopl1:1,2017-01-02T16:31:00Z,28.8850,-90.0250,1014.1,11111222 
LOOP,urn:ioos:station:wmo:lopl1:1,2017-01-02T17:31:00Z,28.8850,-90.0250,1012.1,11111222 
LOOP,urn:ioos:station:wmo:lopl1:1,2017-01-02T18:31:00Z,28.8850,-90.0250,1011.1,11111222 
LOOP,urn:ioos:station:wmo:lopl1:1,2017-01-02T19:31:00Z,28.8850,-90.0250,1011.1,11111222 
LOOP,urn:ioos:station:wmo:lopl1:1,2017-01-02T20:31:00Z,28.8850,-90.0250,1010.1,11111222 
LOOP,urn:ioos:station:wmo:lopl1:1,2017-01-02T21:36:00Z,28.8850,-90.0250,1012.1,11111222 
LOOP,urn:ioos:station:wmo:lopl1:1,2017-01-02T22:36:00Z,28.8850,-90.0250,1011.1,11111222 
LOOP,urn:ioos:station:wmo:lopl1:1,2017-01-02T23:36:00Z,28.8850,-90.0250,1012.1,11111222 
LOOP,urn:ioos:station:wmo:lopl1:1,2017-01-03T00:36:00Z,28.8850,-90.0250,1012.1,11111222 
LOOP,urn:ioos:station:wmo:lopl1:1,2017-01-03T01:36:00Z,28.8850,-90.0250,1012.1,11111222 
LOOP,urn:ioos:station:wmo:lopl1:1,2017-01-03T02:36:00Z,28.8850,-90.0250,1013.1,11111222 
LOOP,urn:ioos:station:wmo:lopl1:1,2017-01-03T03:36:00Z,28.8850,-90.0250,1013.1,11111222 
LOOP,urn:ioos:station:wmo:lopl1:1,2017-01-03T04:36:00Z,28.8850,-90.0250,1013.1,11111222 
LOOP,urn:ioos:station:wmo:lopl1:1,2017-01-03T05:36:00Z,28.8850,-90.0250,1013.1,11111222 
LOOP,urn:ioos:station:wmo:lopl1:1,2017-01-03T06:36:00Z,28.8850,-90.0250,1013.1,11111222 
LOOP,urn:ioos:station:wmo:lopl1:1,2017-01-03T07:37:00Z,28.8850,-90.0250,1012.1,11111222 
LOOP,urn:ioos:station:wmo:lopl1:1,2017-01-03T08:42:00Z,28.8850,-90.0250,1013.1,11111222 
LOOP,urn:ioos:station:wmo:lopl1:1,2017-01-03T09:42:00Z,28.8850,-90.0250,1013.1,11111222 
LOOP,urn:ioos:station:wmo:lopl1:1,2017-01-03T10:42:00Z,28.8850,-90.0250,1013.1,11111222 
LOOP,urn:ioos:station:wmo:lopl1:1,2017-01-03T11:42:00Z,28.8850,-90.0250,1013.1,11111222 
LOOP,urn:ioos:station:wmo:lopl1:1,2017-01-03T12:42:00Z,28.8850,-90.0250,1014.1,11111222 
LOOP,urn:ioos:station:wmo:lopl1:1,2017-01-03T13:42:00Z,28.8850,-90.0250,1014.1,11111222 
LOOP,urn:ioos:station:wmo:lopl1:1,2017-01-03T14:42:00Z,28.8850,-90.0250,1014.1,11111222 
LOOP,urn:ioos:station:wmo:lopl1:1,2017-01-03T15:42:00Z,28.8850,-90.0250,1015.1,11111222 
LOOP,urn:ioos:station:wmo:lopl1:1,2017-01-03T16:42:00Z,28.8850,-90.0250,1015.1,11111222 
LOOP,urn:ioos:station:wmo:lopl1:1,2017-01-03T17:42:00Z,28.8850,-90.0250,1015.1,11111222 
LOOP,urn:ioos:station:wmo:lopl1:1,2017-01-03T18:42:00Z,28.8850,-90.0250,1013.1,11111222 
LOOP,urn:ioos:station:wmo:lopl1:1,2017-01-03T19:47:00Z,28.8850,-90.0250,1013.1,11111222 
LOOP,urn:ioos:station:wmo:lopl1:1,2017-01-03T20:47:00Z,28.8850,-90.0250,1013.1,11111222 
LOOP,urn:ioos:station:wmo:lopl1:1,2017-01-03T21:47:00Z,28.8850,-90.0250,1013.1,11111222 
LOOP,urn:ioos:station:wmo:lopl1:1,2017-01-03T22:47:00Z,28.8850,-90.0250,1014.1,11111222 
LOOP,urn:ioos:station:wmo:lopl1:1,2017-01-03T23:47:00Z,28.8850,-90.0250,1014.1,11111222 
LOOP,urn:ioos:station:wmo:lopl1:1,2017-01-04T00:47:00Z,28.8850,-90.0250,1014.1,11111222 
LOOP,urn:ioos:station:wmo:lopl1:1,2017-01-04T01:47:00Z,28.8850,-90.0250,1014.1,11111222 
LOOP,urn:ioos:station:wmo:lopl1:1,2017-01-04T02:47:00Z,28.8850,-90.0250,1014.1,11111222 
LOOP,urn:ioos:station:wmo:lopl1:1,2017-01-04T03:47:00Z,28.8850,-90.0250,1014.1,11111222 
LOOP,urn:ioos:station:wmo:lopl1:1,2017-01-04T04:52:00Z,28.8850,-90.0250,1014.1,11111222 
LOOP,urn:ioos:station:wmo:lopl1:1,2017-01-04T05:52:00Z,28.8850,-90.0250,1014.1,11111222 
LOOP,urn:ioos:station:wmo:lopl1:1,2017-01-04T06:52:00Z,28.8850,-90.0250,1014.1,11111222 
LOOP,urn:ioos:station:wmo:lopl1:1,2017-01-04T07:52:00Z,28.8850,-90.0250,1014.1,11111222 
LOOP,urn:ioos:station:wmo:lopl1:1,2017-01-04T08:52:00Z,28.8850,-90.0250,1014.1,11111222 
LOOP,urn:ioos:station:wmo:lopl1:1,2017-01-04T09:52:00Z,28.8850,-90.0250,1014.1,11111222 
LOOP,urn:ioos:station:wmo:lopl1:1,2017-01-04T10:52:00Z,28.8850,-90.0250,1014.1,11111222 
LOOP,urn:ioos:station:wmo:lopl1:1,2017-01-04T11:57:00Z,28.8850,-90.0250,1015.1,11111222 
LOOP,urn:ioos:station:wmo:lopl1:1,2017-01-04T12:57:00Z,28.8850,-90.0250,1015.1,11111222 
LOOP,urn:ioos:station:wmo:lopl1:1,2017-01-04T13:57:00Z,28.8850,-90.0250,1016.1,11111222 
LOOP,urn:ioos:station:wmo:lopl1:1,2017-01-04T14:57:00Z,28.8850,-90.0250,1016.1,11111222 
LOOP,urn:ioos:station:wmo:lopl1:1,2017-01-04T15:57:00Z,28.8850,-90.0250,1017.1,11111222 
LOOP,urn:ioos:station:wmo:lopl1:1,2017-01-04T16:57:00Z,28.8850,-90.0250,1017.1,11111222 
LOOP,urn:ioos:station:wmo:lopl1:1,2017-01-04T17:57:00Z,28.8850,-90.0250,1016.1,11111222 
LOOP,urn:ioos:station:wmo:lopl1:1,2017-01-04T18:57:00Z,28.8850,-90.0250,1015.1,11111222 
LOOP,urn:ioos:station:wmo:lopl1:1,2017-01-04T19:57:00Z,28.8850,-90.0250,1015.1,11111222 
LOOP,urn:ioos:station:wmo:lopl1:1,2017-01-04T20:57:00Z,28.8850,-90.0250,1015.1,11111222 
LOOP,urn:ioos:station:wmo:lopl1:1,2017-01-04T21:57:00Z,28.8850,-90.0250,1015.1,11111222 
LOOP,urn:ioos:station:wmo:lopl1:1,2017-01-04T22:57:00Z,28.8850,-90.0250,1015.1,11111222 
LOOP,urn:ioos:station:wmo:lopl1:1,2017-01-04T23:57:00Z,28.8850,-90.0250,1015.1,11111222 
LOOP,urn:ioos:station:wmo:lopl1:1,2017-01-05T00:57:00Z,28.8850,-90.0250,1016.1,11111222 
LOOP,urn:ioos:station:wmo:lopl1:1,2017-01-05T01:57:00Z,28.8850,-90.0250,1016.1,11111222 
LOOP,urn:ioos:station:wmo:lopl1:1,2017-01-05T02:57:00Z,28.8850,-90.0250,1016.1,11111222 
LOOP,urn:ioos:station:wmo:lopl1:1,2017-01-05T03:57:00Z,28.8850,-90.0250,1016.1,11111222 
LOOP,urn:ioos:station:wmo:lopl1:1,2017-01-05T05:02:00Z,28.8850,-90.0250,1016.1,11111222 
LOOP,urn:ioos:station:wmo:lopl1:1,2017-01-05T06:02:00Z,28.8850,-90.0250,1014.1,11111222 
LOOP,urn:ioos:station:wmo:lopl1:1,2017-01-05T07:02:00Z,28.8850,-90.0250,1014.1,11111222 
LOOP,urn:ioos:station:wmo:lopl1:1,2017-01-05T08:02:00Z,28.8850,-90.0250,1014.1,11111222 
LOOP,urn:ioos:station:wmo:lopl1:1,2017-01-05T09:02:00Z,28.8850,-90.0250,1014.1,11111222 
LOOP,urn:ioos:station:wmo:lopl1:1,2017-01-05T10:02:00Z,28.8850,-90.0250,1013.1,11111222 
LOOP,urn:ioos:station:wmo:lopl1:1,2017-01-05T11:02:00Z,28.8850,-90.0250,1014.1,11111222 
LOOP,urn:ioos:station:wmo:lopl1:1,2017-01-05T12:02:00Z,28.8850,-90.0250,1014.1,11111222 
LOOP,urn:ioos:station:wmo:lopl1:1,2017-01-05T13:02:00Z,28.8850,-90.0250,1014.1,11111222 
LOOP,urn:ioos:station:wmo:lopl1:1,2017-01-05T14:02:00Z,28.8850,-90.0250,1014.1,11111222 
LOOP,urn:ioos:station:wmo:lopl1:1,2017-01-05T15:02:00Z,28.8850,-90.0250,1015.1,11111222 
LOOP,urn:ioos:station:wmo:lopl1:1,2017-01-05T16:07:00Z,28.8850,-90.0250,1015.1,11111222 
LOOP,urn:ioos:station:wmo:lopl1:1,2017-01-05T17:07:00Z,28.8850,-90.0250,1014.1,11111222 
LOOP,urn:ioos:station:wmo:lopl1:1,2017-01-05T18:07:00Z,28.8850,-90.0250,1012.1,11111222 
LOOP,urn:ioos:station:wmo:lopl1:1,2017-01-05T19:07:00Z,28.8850,-90.0250,1012.1,11111222 
LOOP,urn:ioos:station:wmo:lopl1:1,2017-01-05T20:07:00Z,28.8850,-90.0250,1012.1,11111222 
LOOP,urn:ioos:station:wmo:lopl1:1,2017-01-05T21:07:00Z,28.8850,-90.0250,1012.1,11111222 
LOOP,urn:ioos:station:wmo:lopl1:1,2017-01-05T22:07:00Z,28.8850,-90.0250,1012.1,11111222 
LOOP,urn:ioos:station:wmo:lopl1:1,2017-01-05T23:07:00Z,28.8850,-90.0250,1012.1,11111222 
LOOP,urn:ioos:station:wmo:lopl1:1,2017-01-06T00:07:00Z,28.8850,-90.0250,1012.1,11111222 
LOOP,urn:ioos:station:wmo:lopl1:1,2017-01-06T01:07:00Z,28.8850,-90.0250,1013.1,11111222 
LOOP,urn:ioos:station:wmo:lopl1:1,2017-01-06T02:07:00Z,28.8850,-90.0250,1013.1,11111222 
LOOP,urn:ioos:station:wmo:lopl1:1,2017-01-06T03:07:00Z,28.8850,-90.0250,1012.1,11111222 
LOOP,urn:ioos:station:wmo:lopl1:1,2017-01-06T04:07:00Z,28.8850,-90.0250,1012.1,11111222 
LOOP,urn:ioos:station:wmo:lopl1:1,2017-01-06T05:12:00Z,28.8850,-90.0250,1012.1,11111222 
LOOP,urn:ioos:station:wmo:lopl1:1,2017-01-06T06:12:00Z,28.8850,-90.0250,1011.1,11111222 
LOOP,urn:ioos:station:wmo:lopl1:1,2017-01-06T07:12:00Z,28.8850,-90.0250,1011.1,11111222 
LOOP,urn:ioos:station:wmo:lopl1:1,2017-01-06T08:12:00Z,28.8850,-90.0250,1011.1,11111222 
LOOP,urn:ioos:station:wmo:lopl1:1,2017-01-06T09:12:00Z,28.8850,-90.0250,1011.1,11111222 
LOOP,urn:ioos:station:wmo:lopl1:1,2017-01-06T10:12:00Z,28.8850,-90.0250,1011.1,11111222 
LOOP,urn:ioos:station:wmo:lopl1:1,2017-01-06T11:12:00Z,28.8850,-90.0250,1011.1,11111222 
LOOP,urn:ioos:station:wmo:lopl1:1,2017-01-06T12:12:00Z,28.8850,-90.0250,1011.1,11111222 
LOOP,urn:ioos:station:wmo:lopl1:1,2017-01-06T13:12:00Z,28.8850,-90.0250,1012.1,11111222 
LOOP,urn:ioos:station:wmo:lopl1:1,2017-01-06T14:12:00Z,28.8850,-90.0250,1012.1,11111222 
LOOP,urn:ioos:station:wmo:lopl1:1,2017-01-06T15:12:00Z,28.8850,-90.0250,1012.1,11111222 
LOOP,urn:ioos:station:wmo:lopl1:1,2017-01-06T16:12:00Z,28.8850,-90.0250,1013.1,11111222 
LOOP,urn:ioos:station:wmo:lopl1:1,2017-01-06T17:12:00Z,28.8850,-90.0250,1013.1,11111222 
LOOP,urn:ioos:station:wmo:lopl1:1,2017-01-06T18:12:00Z,28.8850,-90.0250,1012.1,11111222 
LOOP,urn:ioos:station:wmo:lopl1:1,2017-01-06T19:17:00Z,28.8850,-90.0250,1012.1,11111222 
LOOP,urn:ioos:station:wmo:lopl1:1,2017-01-06T20:17:00Z,28.8850,-90.0250,1011.1,11111222 
LOOP,urn:ioos:station:wmo:lopl1:1,2017-01-06T21:17:00Z,28.8850,-90.0250,1012.1,11111222 
LOOP,urn:ioos:station:wmo:lopl1:1,2017-01-06T22:17:00Z,28.8850,-90.0250,1012.1,11111222 
LOOP,urn:ioos:station:wmo:lopl1:1,2017-01-06T23:17:00Z,28.8850,-90.0250,1012.1,11111222 
LOOP,urn:ioos:station:wmo:lopl1:1,2017-01-07T00:17:00Z,28.8850,-90.0250,1015.1,11111222 
LOOP,urn:ioos:station:wmo:lopl1:1,2017-01-07T01:17:00Z,28.8850,-90.0250,1015.1,11111222 
LOOP,urn:ioos:station:wmo:lopl1:1,2017-01-07T01:32:00Z,28.8850,-90.0250,1015.1,11111222 
LOOP,urn:ioos:station:wmo:lopl1:1,2017-01-07T02:32:00Z,28.8850,-90.0250,1017.1,11111222 
LOOP,urn:ioos:station:wmo:lopl1:1,2017-01-07T03:32:00Z,28.8850,-90.0250,1019.1,11111222 
LOOP,urn:ioos:station:wmo:lopl1:1,2017-01-07T04:32:00Z,28.8850,-90.0250,1020.1,11111222 
LOOP,urn:ioos:station:wmo:lopl1:1,2017-01-07T05:32:00Z,28.8850,-90.0250,1020.1,11111222 
LOOP,urn:ioos:station:wmo:lopl1:1,2017-01-07T06:32:00Z,28.8850,-90.0250,1020.1,11111222 
LOOP,urn:ioos:station:wmo:lopl1:1,2017-01-07T07:32:00Z,28.8850,-90.0250,1022.1,11111222 
LOOP,urn:ioos:station:wmo:lopl1:1,2017-01-07T08:32:00Z,28.8850,-90.0250,1023.1,11111222 
LOOP,urn:ioos:station:wmo:lopl1:1,2017-01-07T09:32:00Z,28.8850,-90.0250,1023.1,11111222 
LOOP,urn:ioos:station:wmo:lopl1:1,2017-01-07T10:37:00Z,28.8850,-90.0250,1025.1,11111222 
LOOP,urn:ioos:station:wmo:lopl1:1,2017-01-07T11:37:00Z,28.8850,-90.0250,1026.1,11111222 
LOOP,urn:ioos:station:wmo:lopl1:1,2017-01-07T12:37:00Z,28.8850,-90.0250,1027.1,11111222 
LOOP,urn:ioos:station:wmo:lopl1:1,2017-01-07T13:37:00Z,28.8850,-90.0250,1029.1,11111222 
LOOP,urn:ioos:station:wmo:lopl1:1,2017-01-07T14:37:00Z,28.8850,-90.0250,1031.1,11111222 
LOOP,urn:ioos:station:wmo:lopl1:1,2017-01-07T15:37:00Z,28.8850,-90.0250,1031.1,11111222 
LOOP,urn:ioos:station:wmo:lopl1:1,2017-01-07T16:37:00Z,28.8850,-90.0250,1032.1,11111222 
LOOP,urn:ioos:station:wmo:lopl1:1,2017-01-07T17:37:00Z,28.8850,-90.0250,1032.1,11111222 
LOOP,urn:ioos:station:wmo:lopl1:1,2017-01-07T18:37:00Z,28.8850,-90.0250,1032.1,11111222 
LOOP,urn:ioos:station:wmo:lopl1:1,2017-01-07T19:37:00Z,28.8850,-90.0250,1032.1,11111222 
LOOP,urn:ioos:station:wmo:lopl1:1,2017-01-07T20:37:00Z,28.8850,-90.0250,1032.1,11111222 
LOOP,urn:ioos:station:wmo:lopl1:1,2017-01-07T21:42:00Z,28.8850,-90.0250,1033.1,11111222 
LOOP,urn:ioos:station:wmo:lopl1:1,2017-01-07T22:42:00Z,28.8850,-90.0250,1033.1,11111222 
LOOP,urn:ioos:station:wmo:lopl1:1,2017-01-07T23:42:00Z,28.8850,-90.0250,1034.1,11111222 
LOOP,urn:ioos:station:wmo:lopl1:1,2017-01-08T00:42:00Z,28.8850,-90.0250,1035.1,11111222 
LOOP,urn:ioos:station:wmo:lopl1:1,2017-01-08T01:42:00Z,28.8850,-90.0250,1036.1,11111222 
LOOP,urn:ioos:station:wmo:lopl1:1,2017-01-08T02:42:00Z,28.8850,-90.0250,1036.1,11111222 
LOOP,urn:ioos:station:wmo:lopl1:1,2017-01-08T03:42:00Z,28.8850,-90.0250,1037.1,11111222 
LOOP,urn:ioos:station:wmo:lopl1:1,2017-01-08T04:42:00Z,28.8850,-90.0250,1037.1,11111222 
LOOP,urn:ioos:station:wmo:lopl1:1,2017-01-08T05:42:00Z,28.8850,-90.0250,1037.1,11111222 
LOOP,urn:ioos:station:wmo:lopl1:1,2017-01-08T06:42:00Z,28.8850,-90.0250,1037.1,11111222 
LOOP,urn:ioos:station:wmo:lopl1:1,2017-01-08T07:42:00Z,28.8850,-90.0250,1036.1,11111222 
LOOP,urn:ioos:station:wmo:lopl1:1,2017-01-08T08:42:00Z,28.8850,-90.0250,1037.1,11111222 
LOOP,urn:ioos:station:wmo:lopl1:1,2017-01-08T09:42:00Z,28.8850,-90.0250,1037.1,11111222 
LOOP,urn:ioos:station:wmo:lopl1:1,2017-01-08T10:42:00Z,28.8850,-90.0250,1037.1,11111222 
LOOP,urn:ioos:station:wmo:lopl1:1,2017-01-08T11:42:00Z,28.8850,-90.0250,1037.1,11111222 
LOOP,urn:ioos:station:wmo:lopl1:1,2017-01-08T12:47:00Z,28.8850,-90.0250,1038.1,11111222 
LOOP,urn:ioos:station:wmo:lopl1:1,2017-01-08T13:47:00Z,28.8850,-90.0250,1039.1,11111222 
LOOP,urn:ioos:station:wmo:lopl1:1,2017-01-08T14:52:00Z,28.8850,-90.0250,1039.1,11111222 
LOOP,urn:ioos:station:wmo:lopl1:1,2017-01-08T15:52:00Z,28.8850,-90.0250,1040.1,11111222 
LOOP,urn:ioos:station:wmo:lopl1:1,2017-01-08T16:52:00Z,28.8850,-90.0250,1039.1,11111222 
LOOP,urn:ioos:station:wmo:lopl1:1,2017-01-08T17:52:00Z,28.8850,-90.0250,1038.1,11111222 
LOOP,urn:ioos:station:wmo:lopl1:1,2017-01-08T18:52:00Z,28.8850,-90.0250,1037.1,11111222 
LOOP,urn:ioos:station:wmo:lopl1:1,2017-01-08T19:52:00Z,28.8850,-90.0250,1037.1,11111222 
LOOP,urn:ioos:station:wmo:lopl1:1,2017-01-08T20:52:00Z,28.8850,-90.0250,1036.1,11111222 
LOOP,urn:ioos:station:wmo:lopl1:1,2017-01-08T21:52:00Z,28.8850,-90.0250,1036.1,11111222 
LOOP,urn:ioos:station:wmo:lopl1:1,2017-01-08T22:52:00Z,28.8850,-90.0250,1036.1,11111222 
LOOP,urn:ioos:station:wmo:lopl1:1,2017-01-08T23:52:00Z,28.8850,-90.0250,1037.1,11111222 
LOOP,urn:ioos:station:wmo:lopl1:1,2017-01-09T00:52:00Z,28.8850,-90.0250,1036.1,11111222 
LOOP,urn:ioos:station:wmo:lopl1:1,2017-01-09T01:52:00Z,28.8850,-90.0250,1036.1,11111222 
LOOP,urn:ioos:station:wmo:lopl1:1,2017-01-09T02:52:00Z,28.8850,-90.0250,1036.1,11111222 
LOOP,urn:ioos:station:wmo:lopl1:1,2017-01-09T03:52:00Z,28.8850,-90.0250,1036.1,11111222 
LOOP,urn:ioos:station:wmo:lopl1:1,2017-01-09T04:52:00Z,28.8850,-90.0250,1036.1,11111222 
LOOP,urn:ioos:station:wmo:lopl1:1,2017-01-09T05:52:00Z,28.8850,-90.0250,1036.1,11111222 
LOOP,urn:ioos:station:wmo:lopl1:1,2017-01-09T06:52:00Z,28.8850,-90.0250,1035.1,11111222 
LOOP,urn:ioos:station:wmo:lopl1:1,2017-01-09T07:52:00Z,28.8850,-90.0250,1035.1,11111222 
LOOP,urn:ioos:station:wmo:lopl1:1,2017-01-09T08:52:00Z,28.8850,-90.0250,1034.1,11111222 
LOOP,urn:ioos:station:wmo:lopl1:1,2017-01-09T09:52:00Z,28.8850,-90.0250,1034.1,11111222 
LOOP,urn:ioos:station:wmo:lopl1:1,2017-01-09T10:52:00Z,28.8850,-90.0250,1033.1,11111222 
LOOP,urn:ioos:station:wmo:lopl1:1,2017-01-09T11:52:00Z,28.8850,-90.0250,1034.1,11111222 
LOOP,urn:ioos:station:wmo:lopl1:1,2017-01-09T12:52:00Z,28.8850,-90.0250,1034.1,11111222 
LOOP,urn:ioos:station:wmo:lopl1:1,2017-01-09T13:52:00Z,28.8850,-90.0250,1034.1,11111222 
LOOP,urn:ioos:station:wmo:lopl1:1,2017-01-09T14:57:00Z,28.8850,-90.0250,1034.1,11111222 
LOOP,urn:ioos:station:wmo:lopl1:1,2017-01-09T15:57:00Z,28.8850,-90.0250,1034.1,11111222 
LOOP,urn:ioos:station:wmo:lopl1:1,2017-01-09T16:57:00Z,28.8850,-90.0250,1034.1,11111222 
LOOP,urn:ioos:station:wmo:lopl1:1,2017-01-09T17:57:00Z,28.8850,-90.0250,1033.1,11111222 
LOOP,urn:ioos:station:wmo:lopl1:1,2017-01-09T18:57:00Z,28.8850,-90.0250,1032.1,11111222 
LOOP,urn:ioos:station:wmo:lopl1:1,2017-01-09T19:57:00Z,28.8850,-90.0250,1031.1,11111222 
LOOP,urn:ioos:station:wmo:lopl1:1,2017-01-09T20:57:00Z,28.8850,-90.0250,1031.1,11111222 
LOOP,urn:ioos:station:wmo:lopl1:1,2017-01-09T21:57:00Z,28.8850,-90.0250,1031.1,11111222 
LOOP,urn:ioos:station:wmo:lopl1:1,2017-01-09T22:57:00Z,28.8850,-90.0250,1031.1,11111222 
LOOP,urn:ioos:station:wmo:lopl1:1,2017-01-09T23:57:00Z,28.8850,-90.0250,1031.1,11111222 
LOOP,urn:ioos:station:wmo:lopl1:1,2017-01-10T00:57:00Z,28.8850,-90.0250,1031.1,11111222 
LOOP,urn:ioos:station:wmo:lopl1:1,2017-01-10T01:57:00Z,28.8850,-90.0250,1030.1,11111222 
LOOP,urn:ioos:station:wmo:lopl1:1,2017-01-10T03:02:00Z,28.8850,-90.0250,1030.1,11111222 
LOOP,urn:ioos:station:wmo:lopl1:1,2017-01-10T04:02:00Z,28.8850,-90.0250,1030.1,11111222 
LOOP,urn:ioos:station:wmo:lopl1:1,2017-01-10T05:02:00Z,28.8850,-90.0250,1029.1,11111222 
LOOP,urn:ioos:station:wmo:lopl1:1,2017-01-10T06:02:00Z,28.8850,-90.0250,1028.1,11111222 
LOOP,urn:ioos:station:wmo:lopl1:1,2017-01-10T07:02:00Z,28.8850,-90.0250,1028.1,11111222 
LOOP,urn:ioos:station:wmo:lopl1:1,2017-01-10T08:02:00Z,28.8850,-90.0250,1027.1,11111222 
LOOP,urn:ioos:station:wmo:lopl1:1,2017-01-10T09:02:00Z,28.8850,-90.0250,1026.1,11111222 
LOOP,urn:ioos:station:wmo:lopl1:1,2017-01-10T10:02:00Z,28.8850,-90.0250,1026.1,11111222 
LOOP,urn:ioos:station:wmo:lopl1:1,2017-01-10T11:02:00Z,28.8850,-90.0250,1025.1,11111222 
LOOP,urn:ioos:station:wmo:lopl1:1,2017-01-10T12:02:00Z,28.8850,-90.0250,1026.1,11111222 
LOOP,urn:ioos:station:wmo:lopl1:1,2017-01-10T13:02:00Z,28.8850,-90.0250,1026.1,11111222 
LOOP,urn:ioos:station:wmo:lopl1:1,2017-01-10T14:02:00Z,28.8850,-90.0250,1026.1,11111222 
LOOP,urn:ioos:station:wmo:lopl1:1,2017-01-10T15:07:00Z,28.8850,-90.0250,1027.1,11111222 
LOOP,urn:ioos:station:wmo:lopl1:1,2017-01-10T16:07:00Z,28.8850,-90.0250,1026.1,11111222 
LOOP,urn:ioos:station:wmo:lopl1:1,2017-01-10T17:07:00Z,28.8850,-90.0250,1025.1,11111222 
LOOP,urn:ioos:station:wmo:lopl1:1,2017-01-10T18:07:00Z,28.8850,-90.0250,1024.1,11111222 
LOOP,urn:ioos:station:wmo:lopl1:1,2017-01-10T19:07:00Z,28.8850,-90.0250,1024.1,11111222 
LOOP,urn:ioos:station:wmo:lopl1:1,2017-01-10T20:07:00Z,28.8850,-90.0250,1024.1,11111222 
LOOP,urn:ioos:station:wmo:lopl1:1,2017-01-10T21:07:00Z,28.8850,-90.0250,1023.1,11111222 
LOOP,urn:ioos:station:wmo:lopl1:1,2017-01-10T22:07:00Z,28.8850,-90.0250,1023.1,11111222 
LOOP,urn:ioos:station:wmo:lopl1:1,2017-01-10T23:17:00Z,28.8850,-90.0250,1023.1,11111222 
LOOP,urn:ioos:station:wmo:lopl1:1,2017-01-10T23:27:00Z,28.8850,-90.0250,1023.1,11111222 
LOOP,urn:ioos:station:wmo:lopl1:1,2017-01-11T00:27:00Z,28.8850,-90.0250,1024.1,11111222 
LOOP,urn:ioos:station:wmo:lopl1:1,2017-01-11T01:27:00Z,28.8850,-90.0250,1024.1,11111222 
LOOP,urn:ioos:station:wmo:lopl1:1,2017-01-11T02:27:00Z,28.8850,-90.0250,1024.1,11111222 
LOOP,urn:ioos:station:wmo:lopl1:1,2017-01-11T03:27:00Z,28.8850,-90.0250,1024.1,11111222 
LOOP,urn:ioos:station:wmo:lopl1:1,2017-01-11T04:27:00Z,28.8850,-90.0250,1024.1,11111222 
LOOP,urn:ioos:station:wmo:lopl1:1,2017-01-11T05:27:00Z,28.8850,-90.0250,1023.1,11111222 
LOOP,urn:ioos:station:wmo:lopl1:1,2017-01-11T06:27:00Z,28.8850,-90.0250,1023.1,11111222 
LOOP,urn:ioos:station:wmo:lopl1:1,2017-01-11T07:27:00Z,28.8850,-90.0250,1023.1,11111222 
LOOP,urn:ioos:station:wmo:lopl1:1,2017-01-11T08:27:00Z,28.8850,-90.0250,1022.1,11111222 
LOOP,urn:ioos:station:wmo:lopl1:1,2017-01-11T09:27:00Z,28.8850,-90.0250,1022.1,11111222 
LOOP,urn:ioos:station:wmo:lopl1:1,2017-01-11T10:27:00Z,28.8850,-90.0250,1022.1,11111222 
LOOP,urn:ioos:station:wmo:lopl1:1,2017-01-11T11:27:00Z,28.8850,-90.0250,1022.1,11111222 
LOOP,urn:ioos:station:wmo:lopl1:1,2017-01-11T12:27:00Z,28.8850,-90.0250,1022.1,11111222 
LOOP,urn:ioos:station:wmo:lopl1:1,2017-01-11T13:27:00Z,28.8850,-90.0250,1023.1,11111222 
LOOP,urn:ioos:station:wmo:lopl1:1,2017-01-11T14:32:00Z,28.8850,-90.0250,1024.1,11111222 
LOOP,urn:ioos:station:wmo:lopl1:1,2017-01-11T15:32:00Z,28.8850,-90.0250,1024.1,11111222 
LOOP,urn:ioos:station:wmo:lopl1:1,2017-01-11T16:32:00Z,28.8850,-90.0250,1024.1,11111222 
LOOP,urn:ioos:station:wmo:lopl1:1,2017-01-11T17:32:00Z,28.8850,-90.0250,1023.1,11111222 
LOOP,urn:ioos:station:wmo:lopl1:1,2017-01-11T18:32:00Z,28.8850,-90.0250,1023.1,11111222 
LOOP,urn:ioos:station:wmo:lopl1:1,2017-01-11T19:32:00Z,28.8850,-90.0250,1022.1,11111222 
LOOP,urn:ioos:station:wmo:lopl1:1,2017-01-11T20:32:00Z,28.8850,-90.0250,1021.1,11111222 
LOOP,urn:ioos:station:wmo:lopl1:1,2017-01-11T21:32:00Z,28.8850,-90.0250,1021.1,11111222 
LOOP,urn:ioos:station:wmo:lopl1:1,2017-01-11T22:32:00Z,28.8850,-90.0250,1021.1,11111222 
LOOP,urn:ioos:station:wmo:lopl1:1,2017-01-11T23:47:00Z,28.8850,-90.0250,1021.1,11111222 
LOOP,urn:ioos:station:wmo:lopl1:1,2017-01-12T00:47:00Z,28.8850,-90.0250,1022.1,11111222 
LOOP,urn:ioos:station:wmo:lopl1:1,2017-01-12T01:47:00Z,28.8850,-90.0250,1022.1,11111222 
LOOP,urn:ioos:station:wmo:lopl1:1,2017-01-12T02:47:00Z,28.8850,-90.0250,1022.1,11111222 
LOOP,urn:ioos:station:wmo:lopl1:1,2017-01-12T03:47:00Z,28.8850,-90.0250,1022.1,11111222 